Date,Time,Wetness (Wet Dry or Ice),Wind Speed (m/s),Temperature (C),Humidity (%),Pressure (mb),Radiation (W/m^2)
2024-04-03,04:50:00,DRY,2.90,6.23,8.0,773.00,0.0
2024-04-03,04:55:00,DRY,3.55,6.30,7.0,773.00,0.0
2024-04-03,05:00:00,DRY,3.20,6.53,6.7,773.00,0.0
2024-04-03,05:05:00,DRY,2.80,6.45,7.0,773.00,0.0
2024-04-03,05:10:00,DRY,2.17,6.50,6.7,773.00,0.0
2024-04-03,05:15:00,DRY,3.45,6.40,7.0,773.00,0.0
2024-04-03,05:20:00,DRY,2.50,6.73,6.7,773.00,0.0
2024-04-03,05:25:00,DRY,2.00,6.30,7.0,773.00,0.0
2024-04-03,05:30:00,DRY,2.93,6.40,7.0,773.00,0.0
2024-04-03,05:35:00,DRY,3.55,6.40,7.0,773.00,0.0
2024-04-03,05:40:00,DRY,3.73,6.40,7.0,773.00,0.0
2024-04-03,05:45:00,DRY,3.10,6.25,7.0,773.00,0.0
2024-04-03,05:50:00,DRY,4.07,6.27,6.7,773.00,0.0
2024-04-03,05:55:00,DRY,4.60,6.50,7.0,773.00,0.0
2024-04-03,06:00:00,DRY,3.40,6.57,6.3,773.00,0.0
2024-04-03,06:05:00,DRY,3.15,6.45,6.5,773.00,0.0
2024-04-03,06:10:00,DRY,3.40,6.43,7.0,773.00,0.0
2024-04-03,06:15:00,DRY,3.05,6.35,7.0,773.00,0.0
2024-04-03,06:20:00,DRY,3.43,6.53,7.0,773.00,0.0
2024-04-03,06:25:00,DRY,3.35,6.50,7.0,773.00,0.0
2024-04-03,06:30:00,DRY,3.37,6.70,7.0,773.00,0.0
2024-04-03,06:35:00,DRY,3.55,6.80,6.5,773.00,0.0
2024-04-03,06:40:00,DRY,4.47,6.83,7.0,773.00,0.0
2024-04-03,06:45:00,DRY,2.90,6.70,7.0,773.00,0.0
2024-04-03,06:50:00,DRY,2.40,6.63,7.0,773.00,0.0
2024-04-03,06:55:00,DRY,3.20,6.55,7.0,773.00,0.0
2024-04-03,07:00:00,DRY,3.00,6.37,7.7,773.00,9.3
2024-04-03,07:05:00,DRY,3.35,6.15,8.0,773.50,22.5
2024-04-03,07:10:00,DRY,3.57,6.53,7.3,773.00,39.0
2024-04-03,07:15:00,DRY,4.75,6.65,7.0,773.00,46.5
2024-04-03,07:20:00,DRY,4.97,6.77,7.3,773.00,13.3
2024-04-03,07:25:00,DRY,4.15,6.95,7.0,773.50,16.0
2024-04-03,07:30:00,DRY,4.77,7.00,7.0,774.00,18.0
2024-04-03,07:35:00,DRY,3.80,7.10,7.0,774.00,20.5
2024-04-03,07:40:00,DRY,3.77,7.13,6.7,774.00,23.0
2024-04-03,07:45:00,DRY,3.75,7.20,7.0,774.00,25.0
2024-04-03,07:50:00,DRY,3.10,7.37,6.7,774.00,27.0
2024-04-03,07:55:00,DRY,3.75,7.55,6.5,774.00,28.5
2024-04-03,08:00:00,DRY,3.37,7.60,6.7,774.00,30.3
2024-04-03,08:05:00,DRY,3.75,7.60,6.5,774.00,32.5
2024-04-03,08:10:00,DRY,4.20,7.70,7.0,774.00,244.3
2024-04-03,08:15:00,DRY,3.10,7.90,7.0,774.00,317.0
2024-04-03,08:20:00,DRY,4.60,8.03,7.3,774.00,339.0
2024-04-03,08:25:00,DRY,4.15,8.10,7.5,774.00,361.5
2024-04-03,08:30:00,DRY,3.87,8.17,7.7,774.00,384.0
2024-04-03,08:35:00,DRY,4.70,8.30,7.0,774.00,405.5
2024-04-03,08:40:00,DRY,4.30,8.43,7.0,774.00,427.7
2024-04-03,08:45:00,DRY,3.70,8.50,8.0,774.00,450.0
2024-04-03,08:50:00,DRY,3.90,8.57,7.0,774.00,471.7
2024-04-03,08:55:00,DRY,4.55,8.70,7.5,774.00,493.0
2024-04-03,09:00:00,DRY,4.10,8.83,7.7,774.00,514.3
2024-04-03,09:05:00,DRY,3.45,9.00,8.5,774.00,535.5
2024-04-03,09:10:00,DRY,3.80,9.17,8.0,774.00,557.0
2024-04-03,09:15:00,DRY,4.65,9.40,7.0,774.00,578.0
2024-04-03,09:20:00,DRY,4.43,9.87,7.0,774.00,599.0
2024-04-03,09:25:00,DRY,4.55,10.05,7.0,774.50,618.5
2024-04-03,09:30:00,DRY,4.70,10.13,6.7,774.33,637.7
2024-04-03,09:35:00,DRY,3.65,10.20,7.0,775.00,656.5
2024-04-03,09:40:00,DRY,3.83,10.40,7.0,774.67,676.0
2024-04-03,09:45:00,DRY,3.45,10.40,7.0,774.50,695.5
2024-04-03,09:50:00,DRY,4.03,10.47,7.0,775.00,714.0
2024-04-03,09:55:00,DRY,3.35,10.60,7.5,775.00,732.5
2024-04-03,10:00:00,DRY,4.23,10.70,7.0,775.00,750.0
2024-04-03,10:05:00,DRY,2.60,10.70,6.5,775.00,766.5
2024-04-03,10:10:00,DRY,3.93,10.87,6.7,775.00,783.3
2024-04-03,10:15:00,DRY,2.95,11.10,7.0,775.00,797.5
2024-04-03,10:20:00,DRY,4.03,11.13,7.0,775.00,798.0
2024-04-03,10:25:00,DRY,4.10,11.25,7.0,775.00,798.0
2024-04-03,10:30:00,DRY,4.10,11.10,6.0,775.00,798.0
2024-04-03,10:35:00,DRY,4.30,11.20,6.0,775.00,798.0
2024-04-03,10:40:00,DRY,3.77,11.57,8.0,775.00,798.0
2024-04-03,10:45:00,DRY,3.60,11.70,8.5,775.00,798.0
2024-04-03,10:50:00,DRY,3.30,11.93,10.0,775.00,798.0
2024-04-03,10:55:00,DRY,3.25,12.25,10.5,775.00,798.0
2024-04-03,11:00:00,DRY,2.50,12.40,10.7,775.00,798.0
2024-04-03,11:05:00,DRY,2.40,12.25,10.0,775.00,798.0
2024-04-03,11:10:00,DRY,2.30,12.70,15.5,775.00,798.0
2024-04-03,11:15:00,DRY,2.30,12.55,14.0,775.00,798.0
2024-04-03,11:20:00,DRY,2.10,12.67,10.7,775.00,798.0
2024-04-03,11:25:00,DRY,1.85,12.70,9.5,775.00,798.0
2024-04-03,11:30:00,DRY,3.67,12.97,10.3,775.00,798.0
2024-04-03,11:35:00,DRY,2.70,13.10,10.5,775.00,798.0
2024-04-03,11:40:00,DRY,2.70,12.80,10.7,775.00,798.0
2024-04-03,11:45:00,DRY,4.00,13.00,13.5,775.00,798.0
2024-04-03,11:50:00,DRY,2.73,13.03,16.0,775.00,798.0
2024-04-03,11:55:00,DRY,3.70,13.20,13.0,775.00,798.0
2024-04-03,12:00:00,DRY,3.40,12.95,25.0,775.00,798.0
2024-04-03,12:05:00,DRY,4.30,12.85,25.0,775.00,798.0
2024-04-03,12:10:00,DRY,4.10,12.70,27.7,775.00,798.0
2024-04-03,12:15:00,DRY,2.50,13.10,37.0,775.00,798.0
2024-04-03,12:20:00,DRY,2.70,13.27,36.3,775.00,798.0
2024-04-03,12:25:00,DRY,1.90,13.20,42.0,775.00,798.0
2024-04-03,12:30:00,DRY,2.70,12.90,42.0,775.00,798.0
2024-04-03,12:35:00,DRY,1.90,12.90,34.0,775.00,798.0
2024-04-03,12:40:00,DRY,1.67,13.20,29.3,775.00,798.0
2024-04-03,12:45:00,DRY,1.50,13.00,38.0,775.00,798.0
2024-04-03,12:50:00,DRY,1.80,13.35,42.0,775.00,798.0
2024-04-03,12:55:00,DRY,3.40,13.30,42.0,775.00,798.0
2024-04-03,13:00:00,DRY,2.03,12.90,34.3,775.00,798.0
2024-04-03,13:05:00,DRY,2.50,13.05,34.5,775.00,798.0
2024-04-03,13:10:00,DRY,2.20,13.67,39.0,775.00,798.0
2024-04-03,13:15:00,DRY,0.50,14.10,37.0,775.00,798.0
2024-04-03,13:20:00,DRY,3.10,13.85,33.0,775.00,798.0
2024-04-03,13:25:00,DRY,1.75,12.90,35.0,775.00,798.0
2024-04-03,13:30:00,DRY,1.85,13.25,40.5,774.50,798.0
2024-04-03,13:35:00,DRY,3.30,13.20,43.0,774.00,798.0
2024-04-03,13:40:00,DRY,3.07,13.53,35.3,775.00,798.0
2024-04-03,13:45:00,DRY,2.70,13.00,38.0,775.00,798.0
2024-04-03,13:50:00,DRY,2.47,13.17,35.7,774.33,798.0
2024-04-03,13:55:00,DRY,3.05,12.90,36.5,774.00,798.0
2024-04-03,14:00:00,DRY,2.60,13.10,36.5,774.00,798.0
2024-04-03,14:05:00,DRY,3.60,13.40,33.0,774.00,798.0
2024-04-03,14:10:00,DRY,3.20,13.23,37.3,774.00,798.0
2024-04-03,14:15:00,DRY,2.05,13.80,34.5,774.00,798.0
2024-04-03,14:20:00,DRY,3.40,14.05,37.0,774.00,798.0
2024-04-03,14:25:00,DRY,2.90,13.90,34.0,774.00,798.0
2024-04-03,14:30:00,DRY,3.10,13.40,31.0,774.00,798.0
2024-04-03,14:35:00,DRY,1.90,13.25,28.5,774.00,798.0
2024-04-03,14:40:00,DRY,2.43,12.87,24.0,774.00,798.0
2024-04-03,14:45:00,DRY,3.10,13.35,23.0,774.00,798.0
2024-04-03,14:50:00,DRY,2.90,12.80,23.3,774.00,798.0
2024-04-03,14:55:00,DRY,3.55,13.10,26.5,774.00,798.0
2024-04-03,15:00:00,DRY,2.93,12.93,30.3,774.00,798.0
2024-04-03,15:05:00,DRY,3.00,13.20,28.0,774.00,798.0
2024-04-03,15:10:00,DRY,2.90,13.27,28.0,774.00,798.0
2024-04-03,15:15:00,DRY,2.20,12.90,26.0,774.00,798.0
2024-04-03,15:20:00,DRY,2.55,13.10,29.0,774.00,798.0
2024-04-03,15:25:00,DRY,2.70,12.70,26.5,774.00,798.0
2024-04-03,15:30:00,DRY,2.40,13.07,25.7,774.00,798.0
2024-04-03,15:35:00,DRY,1.55,12.65,33.5,774.00,798.0
2024-04-03,15:40:00,DRY,2.10,13.05,28.5,774.00,798.0
2024-04-03,15:45:00,DRY,1.15,12.95,31.0,774.00,798.0
2024-04-03,15:50:00,DRY,1.90,12.80,30.3,774.00,798.0
2024-04-03,15:55:00,DRY,1.65,12.85,29.5,774.00,798.0
2024-04-03,16:00:00,DRY,1.03,13.07,31.7,774.00,791.0
2024-04-03,16:05:00,DRY,1.90,13.35,29.0,774.00,774.0
2024-04-03,16:10:00,DRY,1.87,13.40,32.0,774.00,758.7
2024-04-03,16:15:00,DRY,1.05,13.65,30.5,774.00,739.0
2024-04-03,16:20:00,DRY,1.10,13.10,28.0,774.00,721.5
2024-04-03,16:25:00,DRY,1.70,12.90,22.0,774.00,702.0
2024-04-03,16:30:00,DRY,1.73,13.00,22.7,774.00,689.0
2024-04-03,16:35:00,DRY,2.15,13.15,21.5,774.00,670.5
2024-04-03,16:40:00,DRY,1.93,12.97,19.7,774.00,651.3
2024-04-03,16:45:00,DRY,1.30,13.30,21.0,774.00,632.5
2024-04-03,16:50:00,DRY,1.33,13.20,17.7,774.00,615.3
2024-04-03,16:55:00,DRY,1.70,13.30,18.0,774.00,601.0
2024-04-03,17:00:00,DRY,1.70,13.60,16.5,774.00,587.5
2024-04-03,17:05:00,DRY,1.80,14.20,15.0,774.00,569.0
2024-04-03,17:10:00,DRY,1.50,14.15,19.5,774.00,542.5
2024-04-03,17:15:00,DRY,2.25,13.60,23.0,774.00,515.0
2024-04-03,17:20:00,DRY,2.00,13.40,14.0,774.00,495.0
2024-04-03,17:25:00,DRY,2.15,12.95,13.0,774.00,469.5
2024-04-03,17:30:00,DRY,1.57,12.73,10.3,774.00,448.0
2024-04-03,17:35:00,DRY,2.05,13.00,11.0,774.00,419.5
2024-04-03,17:40:00,DRY,2.20,12.80,13.0,774.00,395.0
2024-04-03,17:45:00,DRY,1.60,12.55,13.5,774.00,380.5
2024-04-03,17:50:00,DRY,1.17,13.03,13.0,774.00,363.7
2024-04-03,17:55:00,DRY,1.50,13.35,9.5,774.00,332.5
2024-04-03,18:00:00,DRY,1.80,13.13,12.7,774.00,316.7
2024-04-03,18:05:00,DRY,1.95,12.65,14.5,774.00,287.0
2024-04-03,18:10:00,DRY,1.80,12.40,9.0,774.00,221.5
2024-04-03,18:15:00,DRY,2.30,11.90,13.0,774.00,230.0
2024-04-03,18:20:00,DRY,2.10,12.03,13.3,774.00,214.7
2024-04-03,18:25:00,DRY,2.05,11.75,14.5,774.00,214.0
2024-04-03,18:30:00,DRY,1.93,11.57,12.3,774.00,186.0
2024-04-03,18:35:00,DRY,2.80,11.30,11.0,774.00,171.0
2024-04-03,18:40:00,DRY,1.90,11.50,11.0,774.00,29.0
2024-04-03,18:45:00,DRY,1.95,11.60,9.0,774.00,24.0
2024-04-03,18:50:00,DRY,2.00,11.75,8.5,774.00,22.0
2024-04-03,18:55:00,DRY,1.50,11.70,10.0,774.00,20.5
2024-04-03,19:00:00,DRY,1.53,11.33,9.0,774.00,17.0
2024-04-03,19:05:00,DRY,2.20,11.15,8.5,774.00,14.0
2024-04-03,19:10:00,DRY,2.67,10.80,8.7,774.00,12.0
2024-04-03,19:15:00,DRY,3.05,10.65,8.5,774.00,9.5
2024-04-03,19:20:00,DRY,2.60,10.50,9.0,774.00,5.0
2024-04-03,19:25:00,DRY,2.40,10.25,9.0,774.00,0.5
2024-04-03,19:30:00,DRY,2.30,10.00,8.3,774.00,0.0
2024-04-03,19:35:00,DRY,1.25,9.85,8.5,774.00,0.0
2024-04-03,19:40:00,DRY,1.33,9.90,7.3,774.67,0.0
2024-04-03,19:45:00,DRY,1.55,9.95,7.0,774.00,0.0
2024-04-03,19:50:00,DRY,1.30,10.05,6.5,775.00,0.0
2024-04-03,19:55:00,DRY,1.50,10.20,5.0,774.50,0.0
2024-04-03,20:00:00,DRY,1.17,10.33,5.0,775.00,0.0
2024-04-03,20:05:00,DRY,1.45,10.35,5.0,775.00,0.0
2024-04-03,20:10:00,DRY,1.45,10.15,5.5,775.00,0.0
2024-04-03,20:15:00,DRY,1.25,10.15,5.5,775.00,0.0
2024-04-03,20:20:00,DRY,1.70,10.00,6.0,775.00,0.0
2024-04-03,20:25:00,DRY,1.20,10.10,5.0,775.00,0.0
2024-04-03,20:30:00,DRY,1.33,10.30,4.7,775.00,0.0
2024-04-03,20:35:00,DRY,1.90,10.50,4.0,775.00,0.0
2024-04-03,20:40:00,DRY,2.50,10.50,4.3,775.00,0.0
2024-04-03,20:45:00,DRY,1.95,10.30,4.5,775.00,0.0
2024-04-03,20:50:00,DRY,1.95,10.15,5.0,775.00,0.0
2024-04-03,20:55:00,DRY,2.00,10.20,5.0,775.00,0.0
2024-04-03,21:00:00,DRY,1.60,10.27,4.7,775.00,0.0
2024-04-03,21:05:00,DRY,0.90,10.40,4.0,775.00,0.0
2024-04-03,21:10:00,DRY,0.67,10.50,4.0,775.00,0.0
2024-04-03,21:15:00,DRY,1.55,10.75,4.0,775.00,0.0
2024-04-03,21:20:00,DRY,1.70,10.57,4.3,775.00,0.0
2024-04-03,21:25:00,DRY,1.45,10.30,5.0,775.00,0.0
2024-04-03,21:30:00,DRY,1.45,9.75,6.5,775.00,0.0
2024-04-03,21:35:00,DRY,1.25,9.30,6.0,775.00,0.0
2024-04-03,21:40:00,DRY,1.20,9.63,6.0,775.00,0.0
2024-04-03,21:45:00,DRY,1.15,9.90,5.0,775.00,0.0
2024-04-03,21:50:00,DRY,1.70,9.87,5.7,775.00,0.0
2024-04-03,21:55:00,DRY,1.80,9.95,5.5,775.00,0.0
2024-04-03,22:00:00,DRY,2.10,9.55,6.0,775.00,0.0
2024-04-03,22:05:00,DRY,1.50,9.70,5.5,775.00,0.0
2024-04-03,22:10:00,DRY,1.40,9.50,6.0,775.00,0.0
2024-04-03,22:15:00,DRY,0.90,9.55,6.0,775.00,0.0
2024-04-03,22:20:00,DRY,1.10,9.70,5.5,775.00,0.0
2024-04-03,22:25:00,DRY,1.15,9.85,5.0,775.00,0.0
2024-04-03,22:30:00,DRY,1.43,10.07,5.0,775.00,0.0
2024-04-03,22:35:00,DRY,1.85,9.70,6.0,775.00,0.0
2024-04-03,22:40:00,DRY,1.67,9.33,6.3,775.00,0.0
2024-04-03,22:45:00,DRY,1.75,9.15,7.0,775.00,0.0
2024-04-03,22:50:00,DRY,1.33,9.13,6.3,775.00,0.0
2024-04-03,22:55:00,DRY,1.45,9.55,6.0,775.00,0.0
2024-04-03,23:00:00,DRY,1.35,9.90,5.0,775.00,0.0
2024-04-03,23:05:00,DRY,0.85,10.25,5.0,775.00,0.0
2024-04-03,23:10:00,DRY,0.65,10.20,5.0,775.00,0.0
2024-04-03,23:15:00,DRY,0.50,10.05,5.0,775.00,0.0
2024-04-03,23:20:00,DRY,0.73,10.07,4.3,775.00,0.0
2024-04-03,23:25:00,DRY,0.85,10.10,5.0,775.00,0.0
2024-04-03,23:30:00,DRY,1.30,10.10,5.0,775.00,0.0
2024-04-03,23:35:00,DRY,0.90,10.30,5.0,775.00,0.0
2024-04-03,23:40:00,DRY,0.77,10.10,5.0,775.00,0.0
2024-04-03,23:45:00,DRY,1.60,9.85,5.0,775.00,0.0
2024-04-03,23:50:00,DRY,1.80,9.80,5.5,775.00,0.0
2024-04-03,23:55:00,DRY,1.80,9.35,6.5,775.00,0.0
2024-04-04,00:00:00,DRY,1.87,8.90,7.0,775.00,0.0
2024-04-04,00:05:00,DRY,2.60,8.90,7.0,775.00,0.0
2024-04-04,00:10:00,DRY,2.43,8.37,8.0,775.00,0.0
2024-04-04,00:15:00,DRY,1.70,8.25,8.0,775.00,0.0
2024-04-04,00:20:00,DRY,2.00,8.00,8.0,775.00,0.0
2024-04-04,00:25:00,DRY,2.55,8.30,7.5,775.00,0.0
2024-04-04,00:30:00,DRY,2.33,8.67,7.0,775.00,0.0
2024-04-04,00:35:00,DRY,2.60,8.80,7.0,775.00,0.0
2024-04-04,00:40:00,DRY,2.60,8.80,7.0,775.00,0.0
2024-04-04,00:45:00,DRY,2.25,8.85,7.0,775.00,0.0
2024-04-04,00:50:00,DRY,2.35,8.60,7.5,775.00,0.0
2024-04-04,00:55:00,DRY,2.20,8.70,7.0,775.00,0.0
2024-04-04,01:00:00,DRY,2.10,8.85,7.0,775.00,0.0
2024-04-04,01:05:00,DRY,2.10,8.65,7.5,775.00,0.0
2024-04-04,01:10:00,DRY,2.00,8.57,7.7,775.00,0.0
2024-04-04,01:15:00,DRY,2.20,8.65,7.0,775.00,0.0
2024-04-04,01:20:00,DRY,1.87,8.80,7.0,774.33,0.0
2024-04-04,01:25:00,DRY,2.25,9.00,7.0,774.00,0.0
2024-04-04,01:30:00,DRY,1.95,8.80,7.0,774.00,0.0
2024-04-04,01:35:00,DRY,1.45,8.90,7.0,774.00,0.0
2024-04-04,01:40:00,DRY,2.03,8.80,7.0,774.00,0.0
2024-04-04,01:45:00,DRY,2.80,8.60,7.0,774.00,0.0
2024-04-04,01:50:00,DRY,2.70,8.77,7.0,774.00,0.0
2024-04-04,01:55:00,DRY,2.00,8.90,6.5,774.00,0.0
2024-04-04,02:00:00,DRY,1.93,9.33,6.0,774.00,0.0
2024-04-04,02:05:00,DRY,2.00,9.15,6.0,774.00,0.0
2024-04-04,02:10:00,DRY,2.60,9.37,5.3,774.00,0.0
2024-04-04,02:15:00,DRY,3.15,9.60,5.0,774.00,0.0
2024-04-04,02:20:00,DRY,2.60,9.70,5.0,774.00,0.0
2024-04-04,02:25:00,DRY,2.40,9.50,5.0,774.00,0.0
2024-04-04,02:30:00,DRY,2.20,9.70,5.0,774.00,0.0
2024-04-04,02:35:00,DRY,2.70,9.80,5.0,774.00,0.0
2024-04-04,02:40:00,DRY,2.00,10.05,4.0,773.50,0.0
2024-04-04,02:45:00,DRY,2.70,10.25,4.5,773.00,0.0
2024-04-04,02:50:00,DRY,2.60,10.27,4.3,773.00,0.0
2024-04-04,02:55:00,DRY,1.95,9.85,5.5,773.00,0.0
2024-04-04,03:00:00,DRY,2.30,9.27,6.0,773.00,0.0
2024-04-04,03:05:00,DRY,2.40,9.10,6.0,773.00,0.0
2024-04-04,03:10:00,DRY,2.13,8.83,6.7,773.00,0.0
2024-04-04,03:15:00,DRY,2.50,8.65,7.0,773.00,0.0
2024-04-04,03:20:00,DRY,2.43,8.97,6.0,773.00,0.0
2024-04-04,03:25:00,DRY,2.60,9.10,6.0,773.00,0.0
2024-04-04,03:30:00,DRY,2.67,8.93,6.0,773.00,0.0
2024-04-04,03:35:00,DRY,2.75,9.00,6.0,773.00,0.0
2024-04-04,03:40:00,DRY,3.03,8.93,6.0,773.00,0.0
2024-04-04,03:45:00,DRY,1.85,9.25,6.0,773.00,0.0
2024-04-04,03:50:00,DRY,2.40,9.10,6.0,773.00,0.0
2024-04-04,03:55:00,DRY,1.45,9.35,5.0,773.00,0.0
2024-04-04,04:00:00,DRY,1.15,9.40,5.0,773.00,0.0
2024-04-04,04:05:00,DRY,2.15,9.35,6.0,773.00,0.0
2024-04-04,04:10:00,DRY,2.60,9.57,5.0,773.00,0.0
2024-04-04,04:15:00,DRY,1.90,9.45,5.5,773.00,0.0
2024-04-04,04:20:00,DRY,2.53,9.03,6.3,773.00,0.0
2024-04-04,04:25:00,DRY,2.35,8.95,6.0,773.00,0.0
2024-04-04,04:30:00,DRY,2.53,8.70,7.0,773.00,0.0
2024-04-04,04:35:00,DRY,2.40,8.50,7.0,773.00,0.0
2024-04-04,04:40:00,DRY,2.00,8.55,7.0,773.00,0.0
2024-04-04,04:45:00,DRY,2.45,8.65,7.0,773.00,0.0
2024-04-04,04:50:00,DRY,2.27,8.57,7.0,773.00,0.0
2024-04-04,04:55:00,DRY,2.75,8.50,7.0,773.00,0.0
2024-04-04,05:00:00,DRY,3.43,8.57,7.0,773.00,0.0
2024-04-04,05:05:00,DRY,3.05,8.70,7.0,773.00,0.0
2024-04-04,05:10:00,DRY,2.70,8.53,7.0,773.00,0.0
2024-04-04,05:15:00,DRY,3.15,8.40,7.0,773.00,0.0
2024-04-04,05:20:00,DRY,3.07,8.37,7.0,773.00,0.0
2024-04-04,05:25:00,DRY,3.00,8.50,7.0,773.00,0.0
2024-04-04,05:30:00,DRY,4.03,8.57,5.3,773.00,0.0
2024-04-04,05:35:00,DRY,4.30,8.60,8.5,773.00,0.0
2024-04-04,05:40:00,DRY,3.77,8.57,8.7,773.00,0.0
2024-04-04,05:45:00,DRY,3.05,8.55,9.0,773.00,0.0
2024-04-04,05:50:00,DRY,3.30,8.40,9.5,773.00,0.0
2024-04-04,05:55:00,DRY,2.85,8.40,10.5,773.00,0.0
2024-04-04,06:00:00,DRY,3.00,8.47,11.3,773.00,0.0
2024-04-04,06:05:00,DRY,3.10,8.35,11.5,773.00,0.0
2024-04-04,06:10:00,DRY,3.13,8.53,12.3,773.00,0.0
2024-04-04,06:15:00,DRY,2.85,8.70,11.5,773.00,0.0
2024-04-04,06:20:00,DRY,3.47,8.47,13.3,773.00,0.0
2024-04-04,06:25:00,DRY,4.35,8.45,15.5,773.00,0.0
2024-04-04,06:30:00,DRY,2.80,8.40,16.0,773.00,0.0
2024-04-04,06:35:00,DRY,3.20,8.30,16.5,773.00,0.0
2024-04-04,06:40:00,DRY,4.00,8.53,14.7,773.00,0.0
2024-04-04,06:45:00,DRY,3.45,8.70,13.5,773.00,0.0
2024-04-04,06:50:00,DRY,3.40,8.75,13.0,773.00,0.0
2024-04-04,06:55:00,DRY,3.05,8.65,14.0,773.00,3.0
2024-04-04,07:00:00,DRY,2.35,8.65,13.0,773.00,10.0
2024-04-04,07:05:00,DRY,2.45,8.90,10.0,773.00,25.0
2024-04-04,07:10:00,DRY,2.55,9.15,10.0,773.00,36.5
2024-04-04,07:15:00,DRY,2.40,9.20,10.5,773.00,49.5
2024-04-04,07:20:00,DRY,1.80,9.33,9.0,773.00,32.7
2024-04-04,07:25:00,DRY,2.85,9.45,7.5,773.00,30.5
2024-04-04,07:30:00,DRY,2.23,9.87,6.0,773.00,49.0
2024-04-04,07:35:00,DRY,2.80,10.05,6.5,773.00,62.0
2024-04-04,07:40:00,DRY,2.40,10.00,7.0,773.00,71.0
2024-04-04,07:45:00,DRY,2.20,10.00,7.0,773.00,83.0
2024-04-04,07:50:00,DRY,2.60,10.10,7.0,773.00,100.0
2024-04-04,07:55:00,DRY,2.10,10.10,8.0,773.00,115.0
2024-04-04,08:00:00,DRY,1.80,10.05,8.0,773.00,134.5
2024-04-04,08:05:00,DRY,2.10,10.20,7.0,773.00,134.0
2024-04-04,08:10:00,DRY,2.10,10.67,6.7,773.00,172.0
2024-04-04,08:15:00,DRY,2.00,10.75,7.0,773.00,268.0
2024-04-04,08:20:00,DRY,2.07,10.80,8.3,773.00,237.0
2024-04-04,08:25:00,DRY,2.65,10.55,8.0,773.00,198.5
2024-04-04,08:30:00,DRY,2.40,10.23,8.7,773.00,202.3
2024-04-04,08:35:00,DRY,2.80,10.15,9.5,773.00,214.5
2024-04-04,08:40:00,DRY,2.80,10.07,10.7,773.00,229.0
2024-04-04,08:45:00,DRY,3.00,10.00,13.0,774.00,241.0
2024-04-04,08:50:00,DRY,2.90,9.90,10.5,774.00,284.5
2024-04-04,08:55:00,DRY,3.25,9.95,12.0,773.50,320.5
2024-04-04,09:00:00,DRY,2.90,10.15,11.5,774.00,362.0
2024-04-04,09:05:00,DRY,3.30,10.40,11.0,774.00,416.0
2024-04-04,09:10:00,DRY,3.20,10.40,10.0,774.00,425.3
2024-04-04,09:15:00,DRY,2.45,10.60,11.0,774.00,486.5
2024-04-04,09:20:00,DRY,2.80,10.77,12.0,774.00,513.0
2024-04-04,09:25:00,DRY,3.40,11.05,13.0,774.00,542.5
2024-04-04,09:30:00,DRY,2.87,11.07,11.0,774.00,550.7
2024-04-04,09:35:00,DRY,2.90,11.10,12.0,774.00,604.0
2024-04-04,09:40:00,DRY,2.83,11.43,14.7,774.00,629.0
2024-04-04,09:45:00,DRY,3.30,11.50,14.0,774.00,638.5
2024-04-04,09:50:00,DRY,4.03,11.60,13.3,774.00,635.0
2024-04-04,09:55:00,DRY,2.35,11.60,13.0,774.00,679.0
2024-04-04,10:00:00,DRY,2.90,11.60,11.5,774.00,672.5
2024-04-04,10:05:00,DRY,1.75,11.40,11.5,774.00,578.5
2024-04-04,10:10:00,DRY,2.57,11.40,11.3,774.00,706.7
2024-04-04,10:15:00,DRY,2.35,11.70,12.5,774.00,729.5
2024-04-04,10:20:00,DRY,2.20,11.60,13.7,774.00,699.0
2024-04-04,10:25:00,DRY,2.45,11.60,14.0,774.00,644.5
2024-04-04,10:30:00,DRY,2.57,11.90,13.7,774.00,772.0
2024-04-04,10:35:00,DRY,1.90,11.80,14.0,774.00,798.0
2024-04-04,10:40:00,DRY,1.63,11.90,15.3,774.00,751.7
2024-04-04,10:45:00,DRY,1.40,11.80,14.0,774.00,724.0
2024-04-04,10:50:00,DRY,1.77,12.67,12.3,774.00,700.7
2024-04-04,10:55:00,DRY,1.90,12.70,11.0,774.00,798.0
2024-04-04,11:00:00,DRY,3.13,13.00,11.7,774.00,798.0
2024-04-04,11:05:00,DRY,3.60,13.45,12.0,774.00,798.0
2024-04-04,11:10:00,DRY,2.57,13.13,11.7,774.00,797.7
2024-04-04,11:15:00,DRY,2.70,13.60,13.0,774.00,798.0
2024-04-04,11:20:00,DRY,2.90,13.65,12.0,774.00,796.0
2024-04-04,11:25:00,DRY,2.40,13.25,12.5,774.00,798.0
2024-04-04,11:30:00,DRY,2.13,13.23,12.0,774.00,798.0
2024-04-04,11:35:00,DRY,2.65,13.25,14.0,774.00,798.0
2024-04-04,11:40:00,DRY,1.43,13.47,14.0,774.00,780.7
2024-04-04,11:45:00,DRY,2.20,13.60,15.0,774.00,779.0
2024-04-04,11:50:00,DRY,2.43,13.47,14.0,774.00,795.7
2024-04-04,11:55:00,DRY,2.90,13.50,10.0,774.00,776.0
2024-04-04,12:00:00,DRY,3.00,13.97,9.3,774.00,783.0
2024-04-04,12:05:00,DRY,2.05,14.45,13.5,774.00,798.0
2024-04-04,12:10:00,DRY,1.90,13.93,12.7,774.00,798.0
2024-04-04,12:15:00,DRY,1.80,14.30,11.0,774.00,798.0
2024-04-04,12:20:00,DRY,1.63,14.37,9.0,774.00,787.0
2024-04-04,12:25:00,DRY,3.20,14.75,10.0,774.00,754.0
2024-04-04,12:30:00,DRY,2.93,14.87,11.3,774.00,757.7
2024-04-04,12:35:00,DRY,3.00,14.60,9.0,774.00,761.0
2024-04-04,12:40:00,DRY,2.93,14.77,11.0,774.00,789.7
2024-04-04,12:45:00,DRY,2.45,14.70,11.5,774.00,773.5
2024-04-04,12:50:00,DRY,2.80,14.40,20.0,774.00,766.7
2024-04-04,12:55:00,DRY,1.80,13.90,23.5,774.00,755.0
2024-04-04,13:00:00,DRY,2.57,13.53,18.0,774.00,765.3
2024-04-04,13:05:00,DRY,2.15,13.75,10.0,774.00,739.0
2024-04-04,13:10:00,DRY,2.73,14.43,12.0,774.00,685.3
2024-04-04,13:15:00,DRY,3.85,14.70,15.0,774.00,656.5
2024-04-04,13:20:00,DRY,2.87,14.40,15.7,774.00,661.0
2024-04-04,13:25:00,DRY,2.80,14.10,18.0,773.50,687.5
2024-04-04,13:30:00,DRY,2.55,14.20,14.5,773.00,670.5
2024-04-04,13:35:00,DRY,1.70,14.00,21.0,774.00,681.0
2024-04-04,13:40:00,DRY,1.65,14.10,15.0,773.00,660.5
2024-04-04,13:45:00,DRY,2.55,14.15,18.5,773.00,659.5
2024-04-04,13:50:00,DRY,2.50,14.05,16.0,773.00,697.5
2024-04-04,13:55:00,DRY,2.75,14.30,14.0,773.00,711.0
2024-04-04,14:00:00,DRY,2.43,14.23,7.0,773.00,653.0
2024-04-04,14:05:00,DRY,1.35,14.45,12.5,773.00,627.5
2024-04-04,14:10:00,DRY,2.00,14.50,18.0,773.00,714.0
2024-04-04,14:15:00,DRY,2.05,14.55,15.0,773.00,753.0
2024-04-04,14:20:00,DRY,2.80,14.77,16.3,773.00,741.3
2024-04-04,14:25:00,DRY,2.55,14.60,15.5,773.00,798.0
2024-04-04,14:30:00,DRY,2.07,14.87,15.7,773.00,774.0
2024-04-04,14:35:00,DRY,2.65,14.60,16.0,773.00,717.0
2024-04-04,14:40:00,DRY,3.00,15.00,14.3,773.00,797.3
2024-04-04,14:45:00,DRY,1.70,15.10,17.5,773.00,791.5
2024-04-04,14:50:00,DRY,2.23,14.80,19.0,773.00,797.0
2024-04-04,14:55:00,DRY,2.05,14.65,25.5,773.00,798.0
2024-04-04,15:00:00,DRY,3.35,15.10,26.0,773.00,798.0
2024-04-04,15:05:00,DRY,2.30,14.75,24.0,773.00,798.0
2024-04-04,15:10:00,DRY,2.47,14.63,23.0,773.00,798.0
2024-04-04,15:15:00,DRY,2.35,15.15,21.5,773.00,798.0
2024-04-04,15:20:00,DRY,2.47,14.97,20.3,773.00,798.0
2024-04-04,15:25:00,DRY,2.30,14.70,23.0,773.00,798.0
2024-04-04,15:30:00,DRY,2.93,15.20,22.7,773.00,798.0
2024-04-04,15:35:00,DRY,2.00,15.00,23.5,773.00,798.0
2024-04-04,15:40:00,DRY,2.00,14.83,22.0,773.00,798.0
2024-04-04,15:45:00,DRY,2.45,14.80,23.0,773.00,798.0
2024-04-04,15:50:00,DRY,2.27,14.93,22.7,773.00,798.0
2024-04-04,15:55:00,DRY,2.90,14.80,19.0,773.00,785.0
2024-04-04,16:00:00,DRY,2.93,15.20,17.7,773.00,771.3
2024-04-04,16:05:00,DRY,1.80,14.40,13.0,773.00,753.0
2024-04-04,16:10:00,DRY,3.23,14.87,13.3,773.00,743.3
2024-04-04,16:15:00,DRY,1.85,15.00,11.5,773.00,727.5
2024-04-04,16:20:00,DRY,2.25,15.00,9.5,773.00,706.5
2024-04-04,16:25:00,DRY,2.70,14.80,10.5,773.00,687.0
2024-04-04,16:30:00,DRY,2.80,14.70,13.7,773.00,670.7
2024-04-04,16:35:00,DRY,2.15,14.40,11.5,773.00,655.0
2024-04-04,16:40:00,DRY,2.60,14.27,12.0,773.00,641.7
2024-04-04,16:45:00,DRY,2.85,14.75,14.5,773.00,595.5
2024-04-04,16:50:00,DRY,2.67,14.60,13.3,773.00,574.3
2024-04-04,16:55:00,DRY,3.05,14.45,13.5,773.00,591.0
2024-04-04,17:00:00,DRY,2.33,14.67,13.7,773.00,544.0
2024-04-04,17:05:00,DRY,2.00,14.35,12.5,773.00,524.0
2024-04-04,17:10:00,DRY,2.57,14.23,13.3,773.00,474.7
2024-04-04,17:15:00,DRY,2.05,14.15,16.0,773.00,501.0
2024-04-04,17:20:00,DRY,2.23,13.90,15.3,773.00,481.7
2024-04-04,17:25:00,DRY,2.35,14.20,20.0,773.00,462.0
2024-04-04,17:30:00,DRY,1.80,13.77,21.7,773.00,437.3
2024-04-04,17:35:00,DRY,2.00,13.15,21.5,773.00,414.5
2024-04-04,17:40:00,DRY,1.85,13.25,20.0,773.00,392.0
2024-04-04,17:45:00,DRY,1.25,13.05,22.5,773.00,370.5
2024-04-04,17:50:00,DRY,2.03,13.30,24.3,773.00,348.0
2024-04-04,17:55:00,DRY,1.75,13.30,22.5,773.00,326.0
2024-04-04,18:00:00,DRY,2.07,13.27,28.7,773.00,305.0
2024-04-04,18:05:00,DRY,2.40,13.15,30.5,773.00,284.5
2024-04-04,18:10:00,DRY,2.00,13.00,29.0,773.00,262.0
2024-04-04,18:15:00,DRY,1.35,12.75,30.5,773.00,240.0
2024-04-04,18:20:00,DRY,2.10,12.57,32.3,773.00,219.0
2024-04-04,18:25:00,DRY,2.55,12.45,37.5,773.00,199.0
2024-04-04,18:30:00,DRY,1.83,12.27,40.7,773.00,178.0
2024-04-04,18:35:00,DRY,2.15,12.35,40.5,773.00,158.5
2024-04-04,18:40:00,DRY,2.30,12.40,37.7,772.67,65.0
2024-04-04,18:45:00,DRY,1.95,12.40,39.0,773.00,22.5
2024-04-04,18:50:00,DRY,1.80,12.40,38.3,773.00,20.7
2024-04-04,18:55:00,DRY,2.10,12.20,39.0,772.50,19.5
2024-04-04,19:00:00,DRY,2.20,12.17,40.3,773.00,17.3
2024-04-04,19:05:00,DRY,2.15,12.10,41.5,772.50,14.5
2024-04-04,19:10:00,DRY,2.50,12.10,41.3,773.00,12.0
2024-04-04,19:15:00,DRY,2.15,12.10,41.5,773.00,8.5
2024-04-04,19:20:00,DRY,1.97,11.93,40.7,773.00,5.0
2024-04-04,19:25:00,DRY,2.70,11.75,40.5,773.00,2.0
2024-04-04,19:30:00,DRY,2.33,11.70,41.3,773.00,0.3